{"data":{"norad_id":66392,"intl_designator":"2025-257N","name":"STARLINK-35671","alt_names":[],"object_type":"PAYLOAD","status":"ACTIVE","operator":null,"country":"US","launch_date":"2025-11-09","launch_site_code":"AFETR","launch_vehicle":null,"mission":null,"orbit_class":"UNKNOWN","rcs_meters":null,"size_class":null,"mass_kg":null,"dimensions":null,"purposes":["comms"],"wikipedia_slug":null,"has_3d_model":false,"image_url":null,"decayed_at":null,"tle_current":{"epoch":"2026-05-25T05:03:52.107264Z","epoch_age_seconds":60833,"freshness":"FRESH","line1":"1 66392U 25257N   26145.21101976  .00016967  00000+0  58351-3 0  9995","line2":"2 66392  53.1592 221.2764 0001304  90.8248 269.2902 15.30208242 31456","mean_motion":15.30208242,"eccentricity":0.0001304,"inclination_deg":53.1592,"raan_deg":221.2764,"arg_perigee_deg":90.8248,"mean_anomaly_deg":269.2902,"bstar":0.00058351,"rev_number":3145,"period_min":94.1048388367,"perigee_km":474.29678650258,"apogee_km":476.08413430425003,"semimajor_km":6853.3274604034,"source":"CELESTRAK","updated_at":"2026-05-25T13:38:21.202747Z"}}}